Hutchinson, MN

2:39 PM CST on February 10, 2016 (GMT -0600)
Hutchinson Municipal-Butler

Weather History for KHCD - March, 2013

Change the Weather History Date:

Monday, March 25, 2013

  Actual Average Record
Temperature  
Mean Temperature 25 °F -  
Max Temperature 32 °F 45 °F 72 °F (1968)
Min Temperature 18 °F 26 °F 2 °F (1964)
Degree Days  
Heating Degree Days 40    
Moisture  
Dew Point 18 °F    
Average Humidity 73    
Maximum Humidity 94    
Minimum Humidity 55    
Precipitation  
Precipitation 0.00 in - - ()
Sea Level Pressure  
Sea Level Pressure 30.15 in    
Wind  
Wind Speed 11 mph (NW)    
Max Wind Speed 20 mph    
Max Gust Speed 24 mph    
Visibility 10 miles    
Events Snow    
Averages and records for this station are not official NWS values.
T = Trace of Precipitation, MM = Missing Value Source: NWS Daily Summary

Daily Weather History Graph

Daily Weather History Graph

Search for Another Location

Airport or City:

Trip Planner

Search our weather history database for the weather conditions in past years. The results will help you decide how hot, cold, wet, or windy it might be!

Date:

Astronomy

Mar. 25, 2013 Rise Set
Actual Time 7:10 AM CDT 7:36 PM CDT
Civil Twilight 6:41 AM CDT 8:06 PM CDT
Nautical Twilight 6:06 AM CDT 8:40 PM CDT
Astronomical Twilight 5:31 AM CDT 9:16 PM CDT
Moon 6:07 PM CDT (3/25) 5:58 AM CDT (3/25)
Length of Visible Light 13h 24m
Length of Day
12h 25m
Waxing Gibbous, 96% of the Moon is Illuminated
Mar 25
Waxing Gibbous
Mar 27
Full
Apr 2
Last Quarter
Apr 10
New
Apr 18
First Quarter

Hourly Weather History & Observations

Time (CDT) Temp. Windchill Dew Point Humidity Pressure Visibility Wind Dir Wind Speed Gust Speed Precip Events Conditions
12:14 AM 25.5 °F 16.2 °F 23.9 °F 94% 30.06 in 10.0 mi NW 9.2 mph - N/A Snow Light Snow
12:34 AM 25.7 °F 17.1 °F 23.9 °F 93% 30.06 in 10.0 mi NW 8.1 mph - N/A   Overcast
12:53 AM 25.7 °F 16.4 °F 23.9 °F 93% 30.06 in 10.0 mi NW 9.2 mph - N/A   Overcast
1:14 AM 26.1 °F 16.2 °F 23.9 °F 92% 30.06 in 10.0 mi NW 10.4 mph - N/A   Overcast
1:34 AM 26.6 °F 18.2 °F 23.9 °F 90% 30.07 in 10.0 mi NNW 8.1 mph - N/A   Overcast
1:54 AM 26.6 °F 19.1 °F 23.5 °F 88% 30.07 in 10.0 mi NNW 6.9 mph - N/A   Overcast
2:14 AM 27.5 °F 22.2 °F 21.4 °F 78% 30.07 in 10.0 mi North 4.6 mph - N/A   Overcast
2:34 AM 27.5 °F 20.2 °F 19.0 °F 71% 30.07 in 10.0 mi North 6.9 mph - N/A   Mostly Cloudy
2:54 AM 25.9 °F 17.4 °F 17.8 °F 71% 30.07 in 10.0 mi North 8.1 mph - N/A   Scattered Clouds
3:14 AM 24.6 °F 14.4 °F 17.2 °F 74% 30.07 in 10.0 mi NNW 10.4 mph - N/A   Clear
3:34 AM 24.3 °F 13.9 °F 16.9 °F 73% 30.07 in 10.0 mi NNW 10.4 mph - N/A   Clear
3:54 AM 23.5 °F 13.0 °F 16.3 °F 74% 30.07 in 10.0 mi NNW 10.4 mph - N/A   Clear
4:14 AM 22.8 °F 12.9 °F 15.8 °F 74% 30.07 in 10.0 mi NNW 9.2 mph - N/A   Clear
4:34 AM 21.2 °F 10.1 °F 15.4 °F 78% 30.07 in 10.0 mi NNW 10.4 mph - N/A   Clear
4:53 AM 20.8 °F 10.4 °F 15.4 °F 80% 30.07 in 10.0 mi NW 9.2 mph - N/A   Clear
5:14 AM 21.0 °F 9.9 °F 15.6 °F 80% 30.08 in 10.0 mi NW 10.4 mph - N/A   Clear
5:33 AM 20.1 °F 9.5 °F 14.9 °F 80% 30.08 in 10.0 mi NW 9.2 mph - N/A   Clear
5:54 AM 19.9 °F 8.6 °F 14.9 °F 81% 30.09 in 10.0 mi NW 10.4 mph - N/A   Clear
6:14 AM 19.8 °F 8.3 °F 14.7 °F 81% 30.09 in 10.0 mi NW 10.4 mph - N/A   Clear
6:33 AM 19.8 °F 7.7 °F 14.9 °F 81% 30.10 in 10.0 mi NW 11.5 mph - N/A   Clear
6:54 AM 19.8 °F 8.3 °F 14.7 °F 81% 30.11 in 10.0 mi NW 10.4 mph - N/A   Clear
7:14 AM 18.7 °F 7.8 °F 13.6 °F 81% 30.11 in 10.0 mi NW 9.2 mph - N/A   Clear
7:34 AM 18.5 °F 7.5 °F 13.8 °F 82% 30.12 in 10.0 mi NW 9.2 mph - N/A   Clear
7:54 AM 19.0 °F 7.5 °F 14.0 °F 81% 30.13 in 10.0 mi NW 10.4 mph - N/A   Clear
8:14 AM 20.1 °F 8.1 °F 14.7 °F 80% 30.13 in 10.0 mi NNW 11.5 mph - N/A   Clear
8:34 AM 22.1 °F 11.3 °F 15.3 °F 75% 30.14 in 10.0 mi NW 10.4 mph - N/A   Clear
8:54 AM 23.7 °F 11.5 °F 15.8 °F 72% 30.14 in 10.0 mi NNW 13.8 mph - N/A   Clear
9:14 AM 24.4 °F 11.0 °F 16.2 °F 71% 30.14 in 10.0 mi NNW 17.3 mph - N/A   Clear
9:33 AM 25.2 °F 11.6 °F 16.3 °F 69% 30.14 in 10.0 mi NNW 18.4 mph 24.2 mph N/A   Clear
9:54 AM 25.7 °F 11.9 °F 16.5 °F 68% 30.15 in 10.0 mi NNW 19.6 mph - N/A   Clear
10:14 AM 26.4 °F 13.2 °F 17.2 °F 68% 30.16 in 10.0 mi NNW 18.4 mph 21.9 mph N/A   Clear
10:33 AM 27.0 °F 14.3 °F 17.2 °F 67% 30.16 in 10.0 mi NNW 17.3 mph 21.9 mph N/A   Clear
10:54 AM 27.5 °F 15.0 °F 17.6 °F 66% 30.16 in 10.0 mi NNW 17.3 mph - N/A   Clear
11:14 AM 28.2 °F 16.3 °F 18.1 °F 66% 30.17 in 10.0 mi NNW 16.1 mph - N/A   Clear
11:34 AM 28.4 °F 17.0 °F 17.6 °F 64% 30.17 in 10.0 mi NW 15.0 mph - N/A   Clear
11:53 AM 29.3 °F 18.2 °F 18.5 °F 64% 30.17 in 10.0 mi NW 15.0 mph - N/A   Clear
11:55 AM 29.3 °F 17.7 °F 18.7 °F 65% 30.17 in 10.0 mi NW 16.1 mph - N/A   Clear
12:25 PM 30.2 °F 18.9 °F 17.6 °F 60% 30.17 in 10.0 mi NW 16.1 mph - N/A   Clear
12:45 PM 30.2 °F 18.5 °F 17.6 °F 60% 30.17 in 10.0 mi NW 17.3 mph - N/A   Clear
1:05 PM 30.2 °F 18.1 °F 17.6 °F 60% 30.17 in 10.0 mi NW 18.4 mph - N/A   Clear
1:25 PM 32.0 °F 20.8 °F 17.6 °F 55% 30.17 in 10.0 mi NNW 17.3 mph - N/A   Clear
1:45 PM 32.0 °F 21.2 °F 17.6 °F 55% 30.17 in 10.0 mi NW 16.1 mph 19.6 mph N/A   Clear
2:05 PM 32.0 °F 21.6 °F 19.4 °F 60% 30.17 in 10.0 mi NW 15.0 mph - N/A   Clear
2:25 PM 32.0 °F 21.2 °F 19.4 °F 60% 30.17 in 10.0 mi NNW 16.1 mph - N/A   Clear
2:45 PM 32.0 °F 22.1 °F 19.4 °F 60% 30.16 in 10.0 mi NW 13.8 mph - N/A   Clear
3:05 PM 32.0 °F 21.2 °F 19.4 °F 60% 30.16 in 10.0 mi NW 16.1 mph - N/A   Clear
3:18 PM 32.4 °F 21.3 °F 18.5 °F 57% 30.16 in 10.0 mi NNW 17.3 mph - N/A   Clear
3:34 PM 32.5 °F 22.3 °F 18.7 °F 57% 30.17 in 10.0 mi NW 15.0 mph - N/A   Clear
3:54 PM 32.5 °F 21.9 °F 18.7 °F 57% 30.16 in 10.0 mi NW 16.1 mph - N/A   Clear
4:14 PM 32.5 °F 22.7 °F 18.9 °F 57% 30.17 in 10.0 mi WNW 13.8 mph - N/A   Clear
4:33 PM 32.9 °F 23.2 °F 18.7 °F 56% 30.17 in 10.0 mi NW 13.8 mph - N/A   Clear
4:54 PM 32.2 °F 22.3 °F 18.5 °F 57% 30.17 in 10.0 mi NW 13.8 mph 21.9 mph N/A   Clear
5:14 PM 32.2 °F 22.7 °F 19.8 °F 60% 30.18 in 10.0 mi NW 12.7 mph - N/A   Clear
5:34 PM 32.0 °F 21.6 °F 18.5 °F 58% 30.19 in 10.0 mi NW 15.0 mph - N/A   Clear
5:54 PM 31.8 °F 21.8 °F 19.6 °F 61% 30.19 in 10.0 mi WNW 13.8 mph - N/A   Clear
6:14 PM 31.5 °F 22.3 °F 19.2 °F 61% 30.19 in 10.0 mi WNW 11.5 mph - N/A   Clear
6:34 PM 31.1 °F 20.9 °F 18.5 °F 60% 30.20 in 10.0 mi WNW 13.8 mph - N/A   Clear
6:41 PM 31.1 °F 21.9 °F 18.5 °F 60% 30.20 in 10.0 mi WNW 11.5 mph - N/A   Clear
7:05 PM 28.4 °F 17.5 °F 21.2 °F 74% 30.21 in 10.0 mi WNW 13.8 mph - N/A   Clear
7:25 PM 26.6 °F 15.7 °F 21.2 °F 80% 30.22 in 10.0 mi WNW 12.7 mph - N/A   Clear
7:45 PM 26.6 °F 15.7 °F 21.2 °F 80% 30.22 in 10.0 mi WNW 12.7 mph - N/A   Clear
8:05 PM 24.8 °F 12.9 °F 21.2 °F 86% 30.22 in 10.0 mi WNW 13.8 mph - N/A   Clear
8:25 PM 24.8 °F 13.4 °F 19.4 °F 80% 30.23 in 10.0 mi WNW 12.7 mph - N/A   Clear
8:45 PM 24.8 °F 13.4 °F 19.4 °F 80% 30.23 in 10.0 mi WNW 12.7 mph - N/A   Clear
9:05 PM 23.0 °F 11.7 °F 19.4 °F 86% 30.24 in 10.0 mi WNW 11.5 mph - N/A   Clear
9:25 PM 23.0 °F 11.7 °F 17.6 °F 80% 30.24 in 10.0 mi WNW 11.5 mph - N/A   Clear
9:45 PM 23.0 °F 12.4 °F 17.6 °F 80% 30.24 in 10.0 mi WNW 10.4 mph - N/A   Clear
10:05 PM 23.0 °F 11.7 °F 17.6 °F 80% 30.25 in 10.0 mi WNW 11.5 mph - N/A   Clear
10:25 PM 23.0 °F 12.4 °F 17.6 °F 80% 30.25 in 10.0 mi WNW 10.4 mph 16.1 mph N/A   Clear
10:45 PM 21.2 °F 10.1 °F 17.6 °F 86% 30.25 in 10.0 mi WNW 10.4 mph - N/A   Clear
11:05 PM 21.2 °F 10.1 °F 15.8 °F 80% 30.25 in 10.0 mi WNW 10.4 mph - N/A   Clear
11:48 PM 20.5 °F 8.6 °F 15.8 °F 82% 30.25 in 10.0 mi WNW 11.5 mph - N/A   Clear
11:54 PM 20.5 °F 9.2 °F 15.8 °F 82% 30.25 in 10.0 mi WNW 10.4 mph - N/A   Clear